Regional Weather Roundup
Issued by NWS

Home | Current Version | Previous Version | Graphics & Text | Print | Product List | Glossary On
Versions: 1 2 3 4 5 6 7 8 9 10 11 12 13 14 15 16 17 18 19 20 21 22 23 24 25 26 27 28 29 30 31 32 33 34 35 36 37 38 39 40 41 42 43 44 45 46 47 48 49 50
000
ASUS43 KMKX 261321
RWRWI

WISCONSIN REGIONAL WEATHER ROUNDUP
NATIONAL WEATHER SERVICE MILWAUKEE/SULLIVAN WI
800 AM CDT SUN MAR 26 2017

NOTE: "FAIR" INDICATES FEW OR NO CLOUDS BELOW 12,000 FEET WITH NO
SIGNIFICANT WEATHER AND/OR OBSTRUCTIONS TO VISIBILITY.

WIZ001-002-006>008-014>016-023>028-261400-
NORTHWEST WISCONSIN

CITY           SKY/WX    TMP DP  RH WIND       PRES   REMARKS
SUPERIOR ARPT  MIX PCPN  33  33  99 NE6       30.01F WCI  28
ASHLAND        FOG       32  32 100 N5        30.00F VSB 1/4 WCI  27
HAYWARD        CLOUDY    35  32  88 NE5       29.96F FOG     WCI  31
SIREN          LGT RAIN  34  33  97 NE5       29.97S WCI  30
CUMBERLAND     CLOUDY    32  32 100 NE5       29.95S FOG     WCI  27
RICE LAKE      CLOUDY    34  34  99 CALM      29.97S
CHETEK         CLOUDY    34  34 100 CALM      29.95S FOG
LADYSMITH      CLOUDY    34  34  99 NE3       29.96F
EAU CLAIRE     CLOUDY    35  34  96 NE5       29.93F WCI  31
MENOMONIE      CLOUDY    35  35  99 NE3       29.94F FOG
NEW RICHMOND   CLOUDY    34  34 100 NE5       29.96R FOG     WCI  30
OSCEOLA        CLOUDY    36  36 100 CALM      29.99S
$$

WIZ003>005-009-010-017-018-261400-
NORTH CENTRAL WISCONSIN

CITY           SKY/WX    TMP DP  RH WIND       PRES   REMARKS
MANITOWISH WTR CLOUDY    32  32 100 E3        29.95F FOG
ARBOR VITAE    MIX PCPN  34  33  96 CALM      29.94F
WOODRUFF       MIX PCPN  34  33  96 CALM      29.94F
RHINELANDER    CLOUDY    33  33 100 E6        29.95S WCI  28
EAGLE RIVER    MIX PCPN  32  32 100 E5        29.95S WCI  27
LAND O LAKES   CLOUDY    32  32 100 CALM      29.97F
PHILLIPS       CLOUDY    32  32 100 NE5       29.94S WCI  27
TOMAHAWK       CLOUDY    32  31  98 CALM      29.95S FOG
MEDFORD        CLOUDY    32  32  99 E7        29.92F WCI  26
MERRILL        LGT RAIN  33  33 100 CALM      29.95S
$$

WIZ029-030-035-036-043>047-261400-
CENTRAL WISCONSIN

CITY           SKY/WX    TMP DP  RH WIND       PRES   REMARKS
WAUSAU         CLOUDY    32  32 100 E3        29.93S FOG
MOSINEE        CLOUDY    32  32 100 E8        29.94S FOG     WCI  25
MARSHFIELD     LGT RAIN  33  32  96 E9        29.91F FOG     WCI  25
STEVENS POINT  DRIZZLE   32  32 100 E7        29.94S WCI  25
WAUPACA        LGT RAIN  36  35  96 NE5       29.95F WCI  32
WAUTOMA        CLOUDY    35  34  96 NE9       29.93S WCI  28
WISC RAPIDS    CLOUDY    34  34 100 E9        29.94S WCI  27
CAMP DOUGLAS   CLOUDY    36  36 100 E6        29.91S WCI  31
$$

WIZ011>013-019>022-031-037>040-048>050-261400-
NORTHEAST WISCONSIN

CITY           SKY/WX    TMP DP  RH WIND       PRES   REMARKS
ANTIGO         CLOUDY    31  31 100 E6        29.94F FOG     WCI  25
SHAWANO        DRIZZLE   35  33  93 NE8       29.97F WCI  28
OCONTO         CLOUDY    33  33  99 NE5       29.98F VSB 1   WCI  29
STURGEON BAY   LGT RAIN  36  36 100 E6        29.98F VSB 1   WCI  31
GREEN BAY      LGT RAIN  35  35 100 NE9       29.96S WCI  28
MANITOWOC      LGT RAIN  38  37  97 NE6       29.96S FOG     WCI  33
APPLETON       DRIZZLE   34  34 100 NE10      29.92F WCI  26
CLINTONVILLE   HVY RAIN  32  32 100 NE5       29.97R WCI  27
OSHKOSH        CLOUDY    37  35  92 NE8       29.93R FOG     WCI  31
$$

WIZ032>034-041-042-053>061-261400-
SOUTHWEST WISCONSIN

CITY           SKY/WX    TMP DP  RH WIND       PRES   REMARKS
LA CROSSE      RAIN      37  36  96 N7        29.91S FOG     WCI  32
SPARTA         CLOUDY    35  35 100 NE5       29.92S FOG     WCI  31
VIROQUA        CLOUDY    36  36 100 NE7       29.87S VSB 1/2 WCI  30
BOSCOBEL       FOG       40  39  97 NE5       29.88S VSB 3/4
PRAIRIE DU CHI RAIN      39  38  97 CALM      29.87S
PLATTEVILLE    CLOUDY    41  41 100 NE10      29.85R VSB 3/4
$$

WIZ056-057-062-063-064-067-068-261400-
SOUTH CENTRAL WISCONSIN

CITY           SKY/WX    TMP DP  RH WIND       PRES   REMARKS
REEDSBURG      FOG       37  37 100 E6        29.89S VSB 3/4 WCI  32
BARABOO/DELLS  FOG       37  36  99 NE6       29.89S VSB 1/2 WCI  32
LONE ROCK      CLOUDY    41  39  93 NE8       29.88S FOG
MINERAL POINT  DRZL/FOG  41  41 100 NE8       29.85S VSB 1/2
MADISON        DRZL/FOG  40  40 100 NE8       29.88S VSB 1/4 WCI  34
MIDDLETON      CLOUDY    41  41 100 NE6       29.88S VSB 1/4
WATERTOWN      DRZL/FOG  40  40 100 E9        29.89R VSB 1   WCI  34
MONROE         SNOW      41  41 100 NE9       29.84S VSB<1/4
JANESVILLE     FOG       45  45 100 E8        29.85F VSB 1/2
$$

WIZ051-052-058>065-066-070>072-261400-
SOUTHEAST WISCONSIN

CITY           SKY/WX    TMP DP  RH WIND       PRES   REMARKS
MILWAUKEE      RAIN      40  38  93 NE10      29.90F VSB 1/4 WCI  33
WAUKESHA       LGT RAIN  37  37 100 E7        29.91S VSB 1/4 WCI  32
MILWAUKEE/TIMM DRIZZLE   37  36  93 NE6       29.92S FOG     WCI  33
RACINE         RAIN      41  39  93 N5        29.91S VSB 1
KENOSHA        RAIN      42  41  96 E8        29.89S FOG
FOND DU LAC    CLOUDY    39  36  89 NE7       29.92S FOG     WCI  34
SHEBOYGAN      HVY RAIN  37  36  96 NE10      29.94S FOG     WCI  30
WEST BEND      RAIN      37  37 100 E7        29.92S WCI  32
JUNEAU         FOG       39  39  99 NE7       29.91S VSB 1/2 WCI  34
$$

LSZ147-162-261400-
LAKE SUPERIOR

STATION/POSITION TIME  TEMP    WIND        PRES    WAVE
                       AIR SEA DIR/SP/G            HT/PER
                 (UTC) (F)     (DEG/KT/KT) (MB)    (FT/S)
DEVILS ISLAND    1200   33      80/  4/  4 1017.5F
PORT WING        1240   33      40/  6/  7 1016.6S
SAXON HARBOR     1240   33        CALM     1015.9F
$$

LMZ867-665-643>646-261400-
LAKE MICHIGAN

STATION/POSITION TIME  TEMP    WIND        PRES    WAVE
                       AIR SEA DIR/SP/G            HT/PER
                 (UTC) (F)     (DEG/KT/KT) (MB)    (FT/S)
CHAMBERS ISLAND  1240   33      60/  7/ 10 1015.2F
NORTHPORT PIER   1240   34      70/ 12/ 14 1015.9F
SISTER BAY       1235   34      80/  9/ 13   N/A
KEWAUNEE LAKESHO 1254   36      50/  7/ 11 1014.2F
SHEBOYGAN LAKESH 1300   37      40/ 10/ 11 1014.4S
PORT WASHINGTON  1230   39      40/ 12/ 14 1014.9R
MILWAUKEE LAKESH 1300   38      20/ 12/ 14   N/A
KENOSHA   LAKESH 1200   39      40/  9/ 10 1012.5
$$

TC  - TEMPERATURE IN CELSIUS
VSB - VISIBILITY IN STATUTE MILES
WCI - WIND CHILL INDEX
HX  - HEAT INDEX





USA.gov is the U.S. government's official web portal to all federal, state and local government web resources and services.